Judi M. — WCX8376 — position and weather

sailwx.info

Track history (hours):
 
Tides and Currents Weather Stations Pressure Air Temp Water Temp Dewpoint Dewpoint Depression Visibility Wind Speed Wind Dir Waves Ship Positions

Judi M.

Owner: MANKE TUG & BARGE CO INC, SHELTON, WA. More information available from US FCC via Universal Licensing System and Coast Guard Vessel Documentation Center.

Last reported at 2014-Oct-21 22:43 UTC. Time now 2014-Oct-23 03:41 UTC.
Position N 47°34' W 122°22'.

Length 29 m; draft 4 m.

Type: Tow > 200 m length. MMSI: 366740920.

Date/timePositionNaut miles runAvg speedWind from/ knotsBaromVisibWave heightAir tempDewpointWater temp
2014-Oct-21 22:43N 47°34' W 122°22'0 0.0
2014-Oct-21 22:33N 47°34' W 122°22'0 0.0
2014-Oct-21 22:32N 47°34' W 122°22'2 1.6
2014-Oct-21 21:33N 47°36' W 122°22'0 2.5
2014-Oct-21 21:31N 47°36' W 122°22'6 6.2
2014-Oct-21 20:33N 47°41' W 122°28'0 7.4
2014-Oct-21 20:31N 47°41' W 122°28'7 7.0
2014-Oct-21 19:33N 47°48' W 122°27'0 6.7
2014-Oct-21 19:31N 47°48' W 122°27'7 7.1
2014-Oct-21 18:33N 47°54' W 122°30'0 6.6
2014-Oct-21 18:30N 47°55' W 122°30'7 6.8
2014-Oct-21 17:33N 47°59' W 122°37'1 6.3
2014-Oct-21 17:26N 47°60' W 122°38'5 6.0
2014-Oct-21 16:32N 48°05' W 122°40'7 5.0
2014-Oct-21 15:14N 48°10' W 122°46'4 5.3
2014-Oct-21 14:26N 48°14' W 122°49'7 7.3
2014-Oct-21 13:32N 48°20' W 122°47'7 7.2
2014-Oct-21 12:33N 48°27' W 122°44'7 6.7
2014-Oct-21 11:33N 48°34' W 122°45'6 5.6
2014-Oct-21 10:33N 48°39' W 122°44'6 5.6
2014-Oct-21 09:33N 48°45' W 122°47'7 6.7
2014-Oct-21 08:33N 48°48' W 122°56'7 6.9
2014-Oct-21 07:33N 48°52' W 123°04'7 7.0
2014-Oct-21 06:33N 48°57' W 123°12'8 7.6
2014-Oct-21 05:33N 49°01' W 123°21'7 7.2
2014-Oct-21 04:33N 49°08' W 123°26'7 7.3
2014-Oct-21 03:33N 49°15' W 123°27'7 7.4
2014-Oct-21 02:33N 49°22' W 123°26'7 6.8
2014-Oct-21 01:33N 49°29' W 123°28'2 2.2
2014-Oct-21 00:33N 49°31' W 123°29'0 0.0
2014-Oct-20 23:33N 49°31' W 123°29'0 0.0
2014-Oct-20 22:12N 49°31' W 123°29'0 0.0
2014-Oct-20 21:21N 49°31' W 123°29'0 0.0
2014-Oct-20 20:33N 49°31' W 123°29'0 0.0
2014-Oct-20 19:33N 49°31' W 123°29'0 0.0
2014-Oct-20 18:15N 49°31' W 123°29'0 0.0
2014-Oct-20 17:29N 49°31' W 123°29'0 0.0
2014-Oct-20 16:30N 49°31' W 123°29'0 0.0
2014-Oct-20 15:33N 49°31' W 123°29'0 0.0
2014-Oct-20 14:33N 49°31' W 123°29'2 1.8
2014-Oct-20 13:33N 49°29' W 123°28'8 7.6
2014-Oct-20 12:33N 49°22' W 123°27'8 7.5
2014-Oct-20 11:33N 49°14' W 123°27'7 6.7
2014-Oct-20 10:33N 49°08' W 123°25'7 6.9
2014-Oct-20 09:33N 49°03' W 123°18'7 7.5
2014-Oct-20 08:33N 48°57' W 123°10'7 7.4
2014-Oct-20 07:33N 48°53' W 123°01'7 6.7
2014-Oct-20 06:30N 48°48' W 122°53'6 6.8
2014-Oct-20 05:33N 48°44' W 122°45'6 6.1
2014-Oct-20 04:33N 48°38' W 122°44'6 6.1
2014-Oct-20 03:33N 48°32' W 122°45'7 6.8
2014-Oct-20 02:33N 48°25' W 122°44'10 8.2
2014-Oct-20 01:22N 48°16' W 122°47'8 9.3
2014-Oct-20 00:29N 48°09' W 122°42'8 9.6
2014-Oct-19 23:37N 48°01' W 122°37'1 9.5
2014-Oct-19 23:29N 47°60' W 122°36'3 9.3
2014-Oct-19 23:13N 47°58' W 122°34'6 8.7
2014-Oct-19 22:33N 47°53' W 122°28'0 5.8
2014-Oct-19 22:33N 47°53' W 122°28'9 9.0
2014-Oct-19 21:33N 47°45' W 122°26'0 6.7
2014-Oct-19 21:32N 47°44' W 122°26'8 7.7
2014-Oct-19 20:33N 47°37' W 122°23'0 4.5
2014-Oct-19 20:33N 47°37' W 122°23'3 0.1
2014-Oct-18 05:52N 47°34' W 122°22'1 3.2
2014-Oct-18 05:33N 47°35' W 122°22'5 4.9
2014-Oct-18 04:33N 47°38' W 122°28'0 5.7
2014-Oct-18 04:32N 47°38' W 122°28'6 6.2
2014-Oct-18 03:33N 47°44' W 122°27'0 5.8
2014-Oct-18 03:32N 47°45' W 122°27'6 6.3
2014-Oct-18 02:33N 47°51' W 122°29'0 5.4
2014-Oct-18 02:32N 47°51' W 122°29'5 5.3
2014-Oct-18 01:33N 47°56' W 122°32'0 4.0
2014-Oct-18 01:32N 47°56' W 122°32'4 4.6
2014-Oct-18 00:33N 47°59' W 122°37'5 4.8
2014-Oct-17 23:33N 48°03' W 122°39'4 3.8
2014-Oct-17 22:30N 48°07' W 122°43'0 0.0
2014-Oct-17 11:27N 48°07' W 122°43'6 7.0
2014-Oct-17 10:32N 48°02' W 122°37'5 8.4
2014-Oct-17 09:55N 47°57' W 122°33'3 8.0
2014-Oct-17 09:33N 47°56' W 122°30'1 7.5
2014-Oct-17 09:24N 47°55' W 122°29'7 7.8
2014-Oct-17 08:33N 47°49' W 122°26'1 7.8
2014-Oct-17 08:29N 47°48' W 122°26'7 7.5
2014-Oct-17 07:33N 47°41' W 122°27'4 7.0
2014-Oct-17 07:02N 47°38' W 122°26'3 6.8
2014-Oct-17 06:33N 47°36' W 122°22'0 4.3
2014-Oct-17 06:32N 47°36' W 122°22'1 0.1
2014-Oct-16 20:34N 47°34' W 122°22'0 0.0
2014-Oct-16 20:33N 47°34' W 122°22'2 1.6
2014-Oct-16 19:33N 47°36' W 122°23'0 0.0
2014-Oct-16 19:33N 47°36' W 122°23'6 6.2
2014-Oct-16 18:33N 47°41' W 122°28'0 5.8
2014-Oct-16 18:33N 47°41' W 122°28'7 6.7
2014-Oct-16 17:33N 47°47' W 122°27'0 5.0
2014-Oct-16 17:33N 47°47' W 122°27'7 6.8
2014-Oct-16 16:33N 47°54' W 122°30'0 6.0
2014-Oct-16 16:33N 47°54' W 122°30'8 7.8
2014-Oct-16 15:33N 47°60' W 122°37'3 7.3
2014-Oct-16 15:07N 48°03' W 122°39'5 7.3
2014-Oct-16 14:27N 48°07' W 122°42'7 7.6
2014-Oct-16 13:29N 48°13' W 122°48'3 7.6
2014-Oct-16 13:07N 48°16' W 122°48'4 7.1
2014-Oct-16 12:33N 48°20' W 122°47'8 7.6
2014-Oct-16 11:33N 48°27' W 122°45'2 8.2
2014-Oct-16 11:17N 48°29' W 122°45'6 8.7
2014-Oct-16 10:33N 48°36' W 122°46'1 8.1
2014-Oct-16 10:27N 48°37' W 122°45'7 7.3
2014-Oct-16 09:33N 48°43' W 122°46'7 7.1
2014-Oct-16 08:33N 48°48' W 122°54'7 7.1
2014-Oct-16 07:33N 48°51' W 123°03'7 7.2
2014-Oct-16 06:33N 48°56' W 123°12'7 6.9
2014-Oct-16 05:33N 49°00' W 123°19'7 6.6
2014-Oct-16 04:33N 49°06' W 123°25'7 6.8
2014-Oct-16 03:33N 49°12' W 123°27'7 7.3
2014-Oct-16 02:33N 49°20' W 123°26'7 6.3
2014-Oct-16 01:30N 49°26' W 123°28'5 4.7
2014-Oct-16 00:27N 49°31' W 123°29'0 0.0
2014-Oct-15 14:30N 49°31' W 123°29'3 2.7
2014-Oct-15 13:33N 49°29' W 123°28'8 7.7
2014-Oct-15 12:31N 49°21' W 123°27'8 8.0
2014-Oct-15 11:33N 49°13' W 123°27'7 6.7
2014-Oct-15 10:33N 49°07' W 123°23'7 6.9
2014-Oct-15 09:33N 49°02' W 123°16'6 6.3
2014-Oct-15 08:33N 48°58' W 123°09'6 6.0
2014-Oct-15 07:33N 48°54' W 123°03'7 6.7
2014-Oct-15 06:33N 48°49' W 122°55'7 7.1
2014-Oct-15 05:33N 48°45' W 122°46'7 7.3
2014-Oct-15 04:33N 48°38' W 122°44'5 7.6
2014-Oct-15 03:58N 48°34' W 122°45'3 7.9
2014-Oct-15 03:33N 48°30' W 122°44'8 8.0
2014-Oct-15 02:33N 48°22' W 122°45'2 8.2
2014-Oct-15 02:18N 48°20' W 122°45'6 7.6
2014-Oct-15 01:27N 48°14' W 122°48'6 7.5
2014-Oct-15 00:37N 48°09' W 122°42'1 8.4
2014-Oct-15 00:28N 48°08' W 122°41'8 8.8
2014-Oct-14 23:32N 48°01' W 122°36'3 9.6
2014-Oct-14 23:13N 47°58' W 122°34'6 8.7
2014-Oct-14 22:33N 47°54' W 122°28'9 8.9
2014-Oct-14 21:33N 47°45' W 122°26'5 9.2
2014-Oct-14 21:03N 47°40' W 122°27'5 8.5
2014-Oct-14 20:31N 47°37' W 122°23'1 7.4
2014-Oct-14 20:27N 47°36' W 122°23'2 2.4
2014-Oct-14 19:33N 47°34' W 122°22'0 0.0
2014-Oct-14 19:33N 47°34' W 122°22'0 0.0
2014-Oct-14 15:23N 47°34' W 122°22'0 0.0
2014-Oct-14 14:33N 47°34' W 122°22'0 0.0
2014-Oct-14 14:09N 47°34' W 122°22'0 0.0
2014-Oct-14 13:33N 47°34' W 122°22'0 0.0
2014-Oct-14 13:29N 47°34' W 122°22'0 0.0
2014-Oct-14 12:33N 47°34' W 122°22'0 0.0
2014-Oct-14 12:29N 47°34' W 122°22'0 0.0
2014-Oct-14 11:33N 47°34' W 122°22'0 0.0
2014-Oct-14 11:29N 47°34' W 122°22'0 0.0
2014-Oct-14 10:33N 47°34' W 122°22'0 0.0
2014-Oct-14 10:29N 47°34' W 122°22'0 0.0
2014-Oct-14 09:33N 47°34' W 122°22'0 0.0
2014-Oct-14 09:29N 47°34' W 122°22'0 0.0
2014-Oct-14 08:33N 47°34' W 122°22'0 0.0
2014-Oct-14 08:29N 47°34' W 122°22'0 0.0
2014-Oct-14 07:33N 47°34' W 122°22'0 0.0
2014-Oct-14 07:29N 47°34' W 122°22'0 0.0
2014-Oct-14 06:33N 47°34' W 122°22'0 0.0
2014-Oct-14 06:29N 47°34' W 122°22'0 0.0
2014-Oct-14 06:04N 47°34' W 122°22'0 0.0
2014-Oct-14 05:33N 47°34' W 122°22'0 0.0
2014-Oct-14 04:33N 47°34' W 122°22'0 0.0
2014-Oct-14 04:28N 47°34' W 122°22'0 0.0
2014-Oct-14 03:33N 47°34' W 122°22'0 0.0
2014-Oct-14 03:33N 47°34' W 122°22'0 0.0
2014-Oct-14 02:33N 47°34' W 122°22'0 0.0
2014-Oct-14 02:33N 47°34' W 122°22'0 0.0
2014-Oct-14 01:33N 47°34' W 122°22'0 0.0
2014-Oct-14 01:33N 47°34' W 122°22'0 0.0
2014-Oct-14 00:33N 47°34' W 122°22'0 0.0
2014-Oct-14 00:33N 47°34' W 122°22'0 0.0
2014-Oct-13 23:33N 47°34' W 122°22'0 0.0
2014-Oct-13 23:33N 47°34' W 122°22'0 0.0
2014-Oct-13 22:26N 47°34' W 122°22'0 0.0
2014-Oct-13 22:21N 47°34' W 122°22'0 0.0
2014-Oct-13 21:33N 47°34' W 122°22'0 0.0
2014-Oct-13 21:31N 47°34' W 122°22'0 0.0
2014-Oct-13 20:32N 47°34' W 122°22'0 0.0
2014-Oct-13 20:31N 47°34' W 122°22'0 0.0
2014-Oct-13 19:33N 47°34' W 122°22'0 0.0
2014-Oct-13 19:31N 47°34' W 122°22'0 0.0
2014-Oct-13 18:33N 47°34' W 122°22'0 0.0
2014-Oct-13 18:30N 47°34' W 122°22'0 0.0
2014-Oct-13 17:33N 47°34' W 122°22'0 0.0
2014-Oct-13 17:14N 47°34' W 122°22'0 0.0
2014-Oct-13 16:33N 47°34' W 122°22'0 0.0
2014-Oct-13 16:30N 47°34' W 122°22'0 0.0
2014-Oct-13 15:33N 47°34' W 122°22'0 0.0
2014-Oct-13 15:14N 47°34' W 122°22'0 0.0
2014-Oct-13 14:33N 47°34' W 122°22'0 0.0
2014-Oct-13 14:29N 47°34' W 122°22'0 0.0
2014-Oct-13 13:33N 47°34' W 122°22'0 0.0
2014-Oct-13 13:29N 47°34' W 122°22'0 0.0
2014-Oct-13 12:33N 47°34' W 122°22'0 0.0
2014-Oct-13 12:29N 47°34' W 122°22'0 0.0
2014-Oct-13 11:33N 47°34' W 122°22'0 0.0
2014-Oct-13 11:29N 47°34' W 122°22'0 0.0
2014-Oct-13 10:33N 47°34' W 122°22'0 0.0
2014-Oct-13 10:24N 47°34' W 122°22'0 0.0
2014-Oct-13 09:33N 47°34' W 122°22'0 0.0
2014-Oct-13 08:28N 47°34' W 122°22'0 0.0
2014-Oct-13 07:39N 47°34' W 122°22'0 0.0
2014-Oct-13 07:33N 47°34' W 122°22'0 0.0
2014-Oct-13 06:59N 47°34' W 122°22'0 0.0
2014-Oct-13 06:33N 47°34' W 122°22'0 0.0
2014-Oct-13 06:29N 47°34' W 122°22'0 0.0
2014-Oct-13 05:54N 47°34' W 122°22'0 0.0
2014-Oct-13 05:33N 47°34' W 122°22'0 0.0
2014-Oct-13 04:32N 47°34' W 122°22'0 0.0
2014-Oct-13 04:28N 47°34' W 122°22'0 0.0
2014-Oct-13 03:34N 47°34' W 122°22'0 0.0
2014-Oct-13 03:33N 47°34' W 122°22'0 0.0
2014-Oct-13 02:28N 47°34' W 122°22'0 0.0
2014-Oct-13 02:16N 47°34' W 122°22'0 0.0
2014-Oct-13 01:33N 47°34' W 122°22'0 0.0
2014-Oct-13 01:31N 47°34' W 122°22'0 0.0
2014-Oct-13 00:33N 47°34' W 122°22'0 0.0
2014-Oct-13 00:31N 47°34' W 122°22'0 0.0
2014-Oct-12 23:33N 47°34' W 122°22'0 0.0
2014-Oct-12 23:31N 47°34' W 122°22'0 0.0
2014-Oct-12 22:33N 47°34' W 122°22'0 0.0
2014-Oct-12 22:30N 47°34' W 122°22'0 0.0
2014-Oct-12 21:27N 47°34' W 122°22'0 0.0
2014-Oct-12 20:58N 47°34' W 122°22'0 0.0
2014-Oct-12 20:33N 47°34' W 122°22'0 0.0
2014-Oct-12 20:28N 47°34' W 122°22'0 0.0
2014-Oct-12 19:33N 47°34' W 122°22'0 0.0
2014-Oct-12 19:27N 47°34' W 122°22'0 0.0
2014-Oct-12 18:33N 47°34' W 122°22'0 0.0
2014-Oct-12 18:33N 47°34' W 122°22'0 0.0
2014-Oct-12 17:33N 47°34' W 122°22'0 0.0
2014-Oct-12 17:33N 47°34' W 122°22'0 0.0
2014-Oct-12 16:33N 47°34' W 122°22'0 0.0
2014-Oct-12 16:33N 47°34' W 122°22'0 0.0
2014-Oct-12 15:33N 47°34' W 122°22'0 0.0
2014-Oct-12 15:32N 47°34' W 122°22'0 0.0
2014-Oct-12 14:33N 47°34' W 122°22'0 0.0
2014-Oct-12 14:32N 47°34' W 122°22'0 0.0
2014-Oct-12 13:33N 47°34' W 122°22'0 0.0
2014-Oct-12 13:32N 47°34' W 122°22'0 0.0
2014-Oct-12 12:33N 47°34' W 122°22'0 0.0
2014-Oct-12 12:32N 47°34' W 122°22'0 0.0
2014-Oct-12 11:33N 47°34' W 122°22'0 0.0
2014-Oct-12 11:32N 47°34' W 122°22'0 0.0
2014-Oct-12 09:27N 47°34' W 122°22'0 0.0
2014-Oct-12 09:25N 47°34' W 122°22'0 0.0
2014-Oct-12 08:33N 47°34' W 122°22'0 0.0
2014-Oct-12 08:29N 47°34' W 122°22'0 0.0
2014-Oct-12 07:33N 47°34' W 122°22'0 0.0
2014-Oct-12 07:29N 47°34' W 122°22'0 0.0
2014-Oct-12 06:33N 47°34' W 122°22'0 0.0
2014-Oct-12 06:29N 47°34' W 122°22'0 0.0
2014-Oct-12 05:59N 47°34' W 122°22'0 0.0
2014-Oct-12 05:33N 47°34' W 122°22'2 1.8
2014-Oct-12 04:33N 47°36' W 122°22'0 0.9
2014-Oct-12 04:29N 47°36' W 122°22'5 5.1
2014-Oct-12 03:33N 47°39' W 122°28'0 6.2
2014-Oct-12 03:29N 47°39' W 122°28'6 6.4
2014-Oct-12 02:33N 47°45' W 122°27'0 6.7
2014-Oct-12 02:29N 47°46' W 122°27'6 6.8
2014-Oct-12 01:33N 47°52' W 122°29'5 7.5
2014-Oct-12 00:57N 47°56' W 122°32'3 8.5
2014-Oct-12 00:33N 47°58' W 122°36'  
Track history (hours):
 
Tides and Currents Weather Stations Pressure Air Temp Water Temp Dewpoint Dewpoint Depression Visibility Wind Speed Wind Dir Waves Ship Positions

Judi M.

Owner: MANKE TUG & BARGE CO INC, SHELTON, WA. More information available from US FCC via Universal Licensing System and Coast Guard Vessel Documentation Center.

Last reported at 2014-Oct-21 22:43 UTC. Time now 2014-Oct-23 03:41 UTC.
Position N 47°34' W 122°22'.

Length 29 m; draft 4 m.

Type: Tow > 200 m length. MMSI: 366740920.

Date/timePositionNaut miles runAvg speedWind from/ knotsBaromVisibWave heightAir tempDewpointWater temp
2014-Oct-21 22:43N 47°34' W 122°22'0 0.0
2014-Oct-21 22:33N 47°34' W 122°22'0 0.0
2014-Oct-21 22:32N 47°34' W 122°22'2 1.6
2014-Oct-21 21:33N 47°36' W 122°22'0 2.5
2014-Oct-21 21:31N 47°36' W 122°22'6 6.2
2014-Oct-21 20:33N 47°41' W 122°28'0 7.4
2014-Oct-21 20:31N 47°41' W 122°28'7 7.0
2014-Oct-21 19:33N 47°48' W 122°27'0 6.7
2014-Oct-21 19:31N 47°48' W 122°27'7 7.1
2014-Oct-21 18:33N 47°54' W 122°30'0 6.6
2014-Oct-21 18:30N 47°55' W 122°30'7 6.8
2014-Oct-21 17:33N 47°59' W 122°37'1 6.3
2014-Oct-21 17:26N 47°60' W 122°38'5 6.0
2014-Oct-21 16:32N 48°05' W 122°40'7 5.0
2014-Oct-21 15:14N 48°10' W 122°46'4 5.3
2014-Oct-21 14:26N 48°14' W 122°49'7 7.3
2014-Oct-21 13:32N 48°20' W 122°47'7 7.2
2014-Oct-21 12:33N 48°27' W 122°44'7 6.7
2014-Oct-21 11:33N 48°34' W 122°45'6 5.6
2014-Oct-21 10:33N 48°39' W 122°44'6 5.6
2014-Oct-21 09:33N 48°45' W 122°47'7 6.7
2014-Oct-21 08:33N 48°48' W 122°56'7 6.9
2014-Oct-21 07:33N 48°52' W 123°04'7 7.0
2014-Oct-21 06:33N 48°57' W 123°12'8 7.6
2014-Oct-21 05:33N 49°01' W 123°21'7 7.2
2014-Oct-21 04:33N 49°08' W 123°26'7 7.3
2014-Oct-21 03:33N 49°15' W 123°27'7 7.4
2014-Oct-21 02:33N 49°22' W 123°26'7 6.8
2014-Oct-21 01:33N 49°29' W 123°28'2 2.2
2014-Oct-21 00:33N 49°31' W 123°29'0 0.0
2014-Oct-20 23:33N 49°31' W 123°29'0 0.0
2014-Oct-20 22:12N 49°31' W 123°29'0 0.0
2014-Oct-20 21:21N 49°31' W 123°29'0 0.0
2014-Oct-20 20:33N 49°31' W 123°29'0 0.0
2014-Oct-20 19:33N 49°31' W 123°29'0 0.0
2014-Oct-20 18:15N 49°31' W 123°29'0 0.0
2014-Oct-20 17:29N 49°31' W 123°29'0 0.0
2014-Oct-20 16:30N 49°31' W 123°29'0 0.0
2014-Oct-20 15:33N 49°31' W 123°29'0 0.0
2014-Oct-20 14:33N 49°31' W 123°29'2 1.8
2014-Oct-20 13:33N 49°29' W 123°28'8 7.6
2014-Oct-20 12:33N 49°22' W 123°27'8 7.5
2014-Oct-20 11:33N 49°14' W 123°27'7 6.7
2014-Oct-20 10:33N 49°08' W 123°25'7 6.9
2014-Oct-20 09:33N 49°03' W 123°18'7 7.5
2014-Oct-20 08:33N 48°57' W 123°10'7 7.4
2014-Oct-20 07:33N 48°53' W 123°01'7 6.7
2014-Oct-20 06:30N 48°48' W 122°53'6 6.8
2014-Oct-20 05:33N 48°44' W 122°45'6 6.1
2014-Oct-20 04:33N 48°38' W 122°44'6 6.1
2014-Oct-20 03:33N 48°32' W 122°45'7 6.8
2014-Oct-20 02:33N 48°25' W 122°44'10 8.2
2014-Oct-20 01:22N 48°16' W 122°47'8 9.3
2014-Oct-20 00:29N 48°09' W 122°42'8 9.6
2014-Oct-19 23:37N 48°01' W 122°37'1 9.5
2014-Oct-19 23:29N 47°60' W 122°36'3 9.3
2014-Oct-19 23:13N 47°58' W 122°34'6 8.7
2014-Oct-19 22:33N 47°53' W 122°28'0 5.8
2014-Oct-19 22:33N 47°53' W 122°28'9 9.0
2014-Oct-19 21:33N 47°45' W 122°26'0 6.7
2014-Oct-19 21:32N 47°44' W 122°26'8 7.7
2014-Oct-19 20:33N 47°37' W 122°23'0 4.5
2014-Oct-19 20:33N 47°37' W 122°23'3 0.1
2014-Oct-18 05:52N 47°34' W 122°22'1 3.2
2014-Oct-18 05:33N 47°35' W 122°22'5 4.9
2014-Oct-18 04:33N 47°38' W 122°28'0 5.7
2014-Oct-18 04:32N 47°38' W 122°28'6 6.2
2014-Oct-18 03:33N 47°44' W 122°27'0 5.8
2014-Oct-18 03:32N 47°45' W 122°27'6 6.3
2014-Oct-18 02:33N 47°51' W 122°29'0 5.4
2014-Oct-18 02:32N 47°51' W 122°29'5 5.3
2014-Oct-18 01:33N 47°56' W 122°32'0 4.0
2014-Oct-18 01:32N 47°56' W 122°32'4 4.6
2014-Oct-18 00:33N 47°59' W 122°37'5 4.8
2014-Oct-17 23:33N 48°03' W 122°39'4 3.8
2014-Oct-17 22:30N 48°07' W 122°43'0 0.0
2014-Oct-17 11:27N 48°07' W 122°43'6 7.0
2014-Oct-17 10:32N 48°02' W 122°37'5 8.4
2014-Oct-17 09:55N 47°57' W 122°33'3 8.0
2014-Oct-17 09:33N 47°56' W 122°30'1 7.5
2014-Oct-17 09:24N 47°55' W 122°29'7 7.8
2014-Oct-17 08:33N 47°49' W 122°26'1 7.8
2014-Oct-17 08:29N 47°48' W 122°26'7 7.5
2014-Oct-17 07:33N 47°41' W 122°27'4 7.0
2014-Oct-17 07:02N 47°38' W 122°26'3 6.8
2014-Oct-17 06:33N 47°36' W 122°22'0 4.3
2014-Oct-17 06:32N 47°36' W 122°22'1 0.1
2014-Oct-16 20:34N 47°34' W 122°22'0 0.0
2014-Oct-16 20:33N 47°34' W 122°22'2 1.6
2014-Oct-16 19:33N 47°36' W 122°23'0 0.0
2014-Oct-16 19:33N 47°36' W 122°23'6 6.2
2014-Oct-16 18:33N 47°41' W 122°28'0 5.8
2014-Oct-16 18:33N 47°41' W 122°28'7 6.7
2014-Oct-16 17:33N 47°47' W 122°27'0 5.0
2014-Oct-16 17:33N 47°47' W 122°27'7 6.8
2014-Oct-16 16:33N 47°54' W 122°30'0 6.0
2014-Oct-16 16:33N 47°54' W 122°30'8 7.8
2014-Oct-16 15:33N 47°60' W 122°37'3 7.3
2014-Oct-16 15:07N 48°03' W 122°39'5 7.3
2014-Oct-16 14:27N 48°07' W 122°42'7 7.6
2014-Oct-16 13:29N 48°13' W 122°48'3 7.6
2014-Oct-16 13:07N 48°16' W 122°48'4 7.1
2014-Oct-16 12:33N 48°20' W 122°47'8 7.6
2014-Oct-16 11:33N 48°27' W 122°45'2 8.2
2014-Oct-16 11:17N 48°29' W 122°45'6 8.7
2014-Oct-16 10:33N 48°36' W 122°46'1 8.1
2014-Oct-16 10:27N 48°37' W 122°45'7 7.3
2014-Oct-16 09:33N 48°43' W 122°46'7 7.1
2014-Oct-16 08:33N 48°48' W 122°54'7 7.1
2014-Oct-16 07:33N 48°51' W 123°03'7 7.2
2014-Oct-16 06:33N 48°56' W 123°12'7 6.9
2014-Oct-16 05:33N 49°00' W 123°19'7 6.6
2014-Oct-16 04:33N 49°06' W 123°25'7 6.8
2014-Oct-16 03:33N 49°12' W 123°27'7 7.3
2014-Oct-16 02:33N 49°20' W 123°26'7 6.3
2014-Oct-16 01:30N 49°26' W 123°28'5 4.7
2014-Oct-16 00:27N 49°31' W 123°29'0 0.0
2014-Oct-15 14:30N 49°31' W 123°29'3 2.7
2014-Oct-15 13:33N 49°29' W 123°28'8 7.7
2014-Oct-15 12:31N 49°21' W 123°27'8 8.0
2014-Oct-15 11:33N 49°13' W 123°27'7 6.7
2014-Oct-15 10:33N 49°07' W 123°23'7 6.9
2014-Oct-15 09:33N 49°02' W 123°16'6 6.3
2014-Oct-15 08:33N 48°58' W 123°09'6 6.0
2014-Oct-15 07:33N 48°54' W 123°03'7 6.7
2014-Oct-15 06:33N 48°49' W 122°55'7 7.1
2014-Oct-15 05:33N 48°45' W 122°46'7 7.3
2014-Oct-15 04:33N 48°38' W 122°44'5 7.6
2014-Oct-15 03:58N 48°34' W 122°45'3 7.9
2014-Oct-15 03:33N 48°30' W 122°44'8 8.0
2014-Oct-15 02:33N 48°22' W 122°45'2 8.2
2014-Oct-15 02:18N 48°20' W 122°45'6 7.6
2014-Oct-15 01:27N 48°14' W 122°48'6 7.5
2014-Oct-15 00:37N 48°09' W 122°42'1 8.4
2014-Oct-15 00:28N 48°08' W 122°41'8 8.8
2014-Oct-14 23:32N 48°01' W 122°36'3 9.6
2014-Oct-14 23:13N 47°58' W 122°34'6 8.7
2014-Oct-14 22:33N 47°54' W 122°28'9 8.9
2014-Oct-14 21:33N 47°45' W 122°26'5 9.2
2014-Oct-14 21:03N 47°40' W 122°27'5 8.5
2014-Oct-14 20:31N 47°37' W 122°23'1 7.4
2014-Oct-14 20:27N 47°36' W 122°23'2 2.4
2014-Oct-14 19:33N 47°34' W 122°22'0 0.0
2014-Oct-14 19:33N 47°34' W 122°22'0 0.0
2014-Oct-14 15:23N 47°34' W 122°22'0 0.0
2014-Oct-14 14:33N 47°34' W 122°22'0 0.0
2014-Oct-14 14:09N 47°34' W 122°22'0 0.0
2014-Oct-14 13:33N 47°34' W 122°22'0 0.0
2014-Oct-14 13:29N 47°34' W 122°22'0 0.0
2014-Oct-14 12:33N 47°34' W 122°22'0 0.0
2014-Oct-14 12:29N 47°34' W 122°22'0 0.0
2014-Oct-14 11:33N 47°34' W 122°22'0 0.0
2014-Oct-14 11:29N 47°34' W 122°22'0 0.0
2014-Oct-14 10:33N 47°34' W 122°22'0 0.0
2014-Oct-14 10:29N 47°34' W 122°22'0 0.0
2014-Oct-14 09:33N 47°34' W 122°22'0 0.0
2014-Oct-14 09:29N 47°34' W 122°22'0 0.0
2014-Oct-14 08:33N 47°34' W 122°22'0 0.0
2014-Oct-14 08:29N 47°34' W 122°22'0 0.0
2014-Oct-14 07:33N 47°34' W 122°22'0 0.0
2014-Oct-14 07:29N 47°34' W 122°22'0 0.0
2014-Oct-14 06:33N 47°34' W 122°22'0 0.0
2014-Oct-14 06:29N 47°34' W 122°22'0 0.0
2014-Oct-14 06:04N 47°34' W 122°22'0 0.0
2014-Oct-14 05:33N 47°34' W 122°22'0 0.0
2014-Oct-14 04:33N 47°34' W 122°22'0 0.0
2014-Oct-14 04:28N 47°34' W 122°22'0 0.0
2014-Oct-14 03:33N 47°34' W 122°22'0 0.0
2014-Oct-14 03:33N 47°34' W 122°22'0 0.0
2014-Oct-14 02:33N 47°34' W 122°22'0 0.0
2014-Oct-14 02:33N 47°34' W 122°22'0 0.0
2014-Oct-14 01:33N 47°34' W 122°22'0 0.0
2014-Oct-14 01:33N 47°34' W 122°22'0 0.0
2014-Oct-14 00:33N 47°34' W 122°22'0 0.0
2014-Oct-14 00:33N 47°34' W 122°22'0 0.0
2014-Oct-13 23:33N 47°34' W 122°22'0 0.0
2014-Oct-13 23:33N 47°34' W 122°22'0 0.0
2014-Oct-13 22:26N 47°34' W 122°22'0 0.0
2014-Oct-13 22:21N 47°34' W 122°22'0 0.0
2014-Oct-13 21:33N 47°34' W 122°22'0 0.0
2014-Oct-13 21:31N 47°34' W 122°22'0 0.0
2014-Oct-13 20:32N 47°34' W 122°22'0 0.0
2014-Oct-13 20:31N 47°34' W 122°22'0 0.0
2014-Oct-13 19:33N 47°34' W 122°22'0 0.0
2014-Oct-13 19:31N 47°34' W 122°22'0 0.0
2014-Oct-13 18:33N 47°34' W 122°22'0 0.0
2014-Oct-13 18:30N 47°34' W 122°22'0 0.0
2014-Oct-13 17:33N 47°34' W 122°22'0 0.0
2014-Oct-13 17:14N 47°34' W 122°22'0 0.0
2014-Oct-13 16:33N 47°34' W 122°22'0 0.0
2014-Oct-13 16:30N 47°34' W 122°22'0 0.0
2014-Oct-13 15:33N 47°34' W 122°22'0 0.0
2014-Oct-13 15:14N 47°34' W 122°22'0 0.0
2014-Oct-13 14:33N 47°34' W 122°22'0 0.0
2014-Oct-13 14:29N 47°34' W 122°22'0 0.0
2014-Oct-13 13:33N 47°34' W 122°22'0 0.0
2014-Oct-13 13:29N 47°34' W 122°22'0 0.0
2014-Oct-13 12:33N 47°34' W 122°22'0 0.0
2014-Oct-13 12:29N 47°34' W 122°22'0 0.0
2014-Oct-13 11:33N 47°34' W 122°22'0 0.0
2014-Oct-13 11:29N 47°34' W 122°22'0 0.0
2014-Oct-13 10:33N 47°34' W 122°22'0 0.0
2014-Oct-13 10:24N 47°34' W 122°22'0 0.0
2014-Oct-13 09:33N 47°34' W 122°22'0 0.0
2014-Oct-13 08:28N 47°34' W 122°22'0 0.0
2014-Oct-13 07:39N 47°34' W 122°22'0 0.0
2014-Oct-13 07:33N 47°34' W 122°22'0 0.0
2014-Oct-13 06:59N 47°34' W 122°22'0 0.0
2014-Oct-13 06:33N 47°34' W 122°22'0 0.0
2014-Oct-13 06:29N 47°34' W 122°22'0 0.0
2014-Oct-13 05:54N 47°34' W 122°22'0 0.0
2014-Oct-13 05:33N 47°34' W 122°22'0 0.0
2014-Oct-13 04:32N 47°34' W 122°22'0 0.0
2014-Oct-13 04:28N 47°34' W 122°22'0 0.0
2014-Oct-13 03:34N 47°34' W 122°22'0 0.0
2014-Oct-13 03:33N 47°34' W 122°22'0 0.0
2014-Oct-13 02:28N 47°34' W 122°22'0 0.0
2014-Oct-13 02:16N 47°34' W 122°22'0 0.0
2014-Oct-13 01:33N 47°34' W 122°22'0 0.0
2014-Oct-13 01:31N 47°34' W 122°22'0 0.0
2014-Oct-13 00:33N 47°34' W 122°22'0 0.0
2014-Oct-13 00:31N 47°34' W 122°22'0 0.0
2014-Oct-12 23:33N 47°34' W 122°22'0 0.0
2014-Oct-12 23:31N 47°34' W 122°22'0 0.0
2014-Oct-12 22:33N 47°34' W 122°22'0 0.0
2014-Oct-12 22:30N 47°34' W 122°22'0 0.0
2014-Oct-12 21:27N 47°34' W 122°22'0 0.0
2014-Oct-12 20:58N 47°34' W 122°22'0 0.0
2014-Oct-12 20:33N 47°34' W 122°22'0 0.0
2014-Oct-12 20:28N 47°34' W 122°22'0 0.0
2014-Oct-12 19:33N 47°34' W 122°22'0 0.0
2014-Oct-12 19:27N 47°34' W 122°22'0 0.0
2014-Oct-12 18:33N 47°34' W 122°22'0 0.0
2014-Oct-12 18:33N 47°34' W 122°22'0 0.0
2014-Oct-12 17:33N 47°34' W 122°22'0 0.0
2014-Oct-12 17:33N 47°34' W 122°22'0 0.0
2014-Oct-12 16:33N 47°34' W 122°22'0 0.0
2014-Oct-12 16:33N 47°34' W 122°22'0 0.0
2014-Oct-12 15:33N 47°34' W 122°22'0 0.0
2014-Oct-12 15:32N 47°34' W 122°22'0 0.0
2014-Oct-12 14:33N 47°34' W 122°22'0 0.0
2014-Oct-12 14:32N 47°34' W 122°22'0 0.0
2014-Oct-12 13:33N 47°34' W 122°22'0 0.0
2014-Oct-12 13:32N 47°34' W 122°22'0 0.0
2014-Oct-12 12:33N 47°34' W 122°22'0 0.0
2014-Oct-12 12:32N 47°34' W 122°22'0 0.0
2014-Oct-12 11:33N 47°34' W 122°22'0 0.0
2014-Oct-12 11:32N 47°34' W 122°22'0 0.0
2014-Oct-12 09:27N 47°34' W 122°22'0 0.0
2014-Oct-12 09:25N 47°34' W 122°22'0 0.0
2014-Oct-12 08:33N 47°34' W 122°22'0 0.0
2014-Oct-12 08:29N 47°34' W 122°22'0 0.0
2014-Oct-12 07:33N 47°34' W 122°22'0 0.0
2014-Oct-12 07:29N 47°34' W 122°22'0 0.0
2014-Oct-12 06:33N 47°34' W 122°22'0 0.0
2014-Oct-12 06:29N 47°34' W 122°22'0 0.0
2014-Oct-12 05:59N 47°34' W 122°22'0 0.0
2014-Oct-12 05:33N 47°34' W 122°22'2 1.8
2014-Oct-12 04:33N 47°36' W 122°22'0 0.9
2014-Oct-12 04:29N 47°36' W 122°22'5 5.1
2014-Oct-12 03:33N 47°39' W 122°28'0 6.2
2014-Oct-12 03:29N 47°39' W 122°28'6 6.4
2014-Oct-12 02:33N 47°45' W 122°27'0 6.7
2014-Oct-12 02:29N 47°46' W 122°27'6 6.8
2014-Oct-12 01:33N 47°52' W 122°29'5 7.5
2014-Oct-12 00:57N 47°56' W 122°32'3 8.5
2014-Oct-12 00:33N 47°58' W 122°36'  

Dump ship's entire track history